Meteo orario Aljustrel

Oggi, 30 Ottobre, Venerdi

Tempo Temperatura Precipitazioni Vento Pressione Umidità
00:00 +18°C° 0 mm 1 m/s 753 mm Hg 72%
01:00 +18°C° 0 mm 1 m/s 753 mm Hg 72%
02:00 +16°C° 0 mm 1 m/s 753 mm Hg 72%
03:00 +16°C° 0 mm 1 m/s 753 mm Hg 72%
04:00 +16°C° 0 mm 1 m/s 753 mm Hg 71%
05:00 +15°C° 0 mm 1 m/s 753 mm Hg 71%
06:00 +18°C° 0 mm 1 m/s 753 mm Hg 66%
07:00 +19°C° 0 mm 1 m/s 754 mm Hg 60%
08:00 +20°C° 0 mm 1 m/s 754 mm Hg 55%
09:00 +22°C° 0 mm 1 m/s 754 mm Hg 49%
10:00 +24°C° 0 mm 1 m/s 754 mm Hg 43%
11:00 +26°C° 0 mm 1 m/s 754 mm Hg 37%
12:00 +26°C° 0 mm 1 m/s 753 mm Hg 34%
13:00 +27°C° 0 mm 1 m/s 753 mm Hg 32%
14:00 +27°C° 0 mm 1 m/s 753 mm Hg 30%
15:00 +26°C° 0 mm 1 m/s 753 mm Hg 35%
16:00 +24°C° 0 mm 1 m/s 753 mm Hg 39%
17:00 +22°C° 0 mm 1 m/s 753 mm Hg 43%
18:00 +22°C° 0 mm 1 m/s 753 mm Hg 48%
19:00 +21°C° 0 mm 1 m/s 753 mm Hg 52%
20:00 +20°C° 0 mm 1 m/s 754 mm Hg 56%
21:00 +19°C° 0 mm 1 m/s 753 mm Hg 58%
22:00 +19°C° 0 mm 1 m/s 753 mm Hg 59%
23:00 +16°C° 0 mm 0 m/s 753 mm Hg 61%

Domani, 31 Ottobre, Sabato

Tempo Temperatura Precipitazioni Vento Pressione Umidità
00:00 +18°C° 0 mm 1 m/s 753 mm Hg 62%
01:00 +18°C° 0 mm 1 m/s 753 mm Hg 63%
02:00 +18°C° 0 mm 1 m/s 753 mm Hg 64%
03:00 +16°C° 0 mm 1 m/s 753 mm Hg 65%
04:00 +16°C° 0 mm 1 m/s 753 mm Hg 66%
05:00 +16°C° 0 mm 1 m/s 754 mm Hg 67%
06:00 +18°C° 0 mm 1 m/s 754 mm Hg 63%
07:00 +19°C° 0 mm 1 m/s 754 mm Hg 59%
08:00 +20°C° 0 mm 1 m/s 754 mm Hg 55%
09:00 +22°C° 0 mm 1 m/s 754 mm Hg 49%
10:00 +24°C° 0 mm 1 m/s 754 mm Hg 44%
11:00 +26°C° 0 mm 1 m/s 754 mm Hg 38%
12:00 +26°C° 0 mm 2 m/s 754 mm Hg 37%
13:00 +27°C° 0 mm 2 m/s 754 mm Hg 35%
14:00 +27°C° 0 mm 3 m/s 754 mm Hg 34%
15:00 +25°C° 0 mm 2 m/s 754 mm Hg 39%
16:00 +24°C° 0 mm 2 m/s 754 mm Hg 45%
17:00 +21°C° 0 mm 2 m/s 754 mm Hg 51%
18:00 +20°C° 0 mm 2 m/s 754 mm Hg 55%
19:00 +19°C° 0 mm 2 m/s 754 mm Hg 60%
20:00 +18°C° 0 mm 2 m/s 755 mm Hg 64%
21:00 +18°C° 0 mm 2 m/s 754 mm Hg 65%
22:00 +18°C° 0 mm 1 m/s 754 mm Hg 67%
23:00 +18°C° 0 mm 1 m/s 754 mm Hg 69%

Dopodomani, 1 Novenbre, Domenica

Tempo Temperatura Precipitazioni Vento Pressione Umidità
00:00 +18°C° 0 mm 1 m/s 754 mm Hg 69%
01:00 +18°C° 0 mm 1 m/s 754 mm Hg 69%
02:00 +16°C° 0 mm 1 m/s 754 mm Hg 69%
03:00 +16°C° 0 mm 1 m/s 754 mm Hg 69%
04:00 +16°C° 0 mm 1 m/s 754 mm Hg 69%
05:00 +16°C° 0 mm 1 m/s 754 mm Hg 70%
06:00 +18°C° 0 mm 1 m/s 754 mm Hg 65%
07:00 +19°C° 0 mm 1 m/s 754 mm Hg 61%
08:00 +20°C° 0 mm 1 m/s 754 mm Hg 56%
09:00 +22°C° 0 mm 1 m/s 754 mm Hg 51%
10:00 +23°C° 0 mm 1 m/s 754 mm Hg 45%
11:00 +25°C° 0 mm 2 m/s 754 mm Hg 39%
12:00 +25°C° 0 mm 2 m/s 754 mm Hg 38%
13:00 +26°C° 0 mm 2 m/s 753 mm Hg 38%
14:00 +26°C° 0 mm 2 m/s 753 mm Hg 37%
15:00 +25°C° 0 mm 2 m/s 753 mm Hg 42%
16:00 +23°C° 0 mm 2 m/s 753 mm Hg 47%
17:00 +21°C° 0 mm 2 m/s 752 mm Hg 52%
18:00 +20°C° 0 mm 2 m/s 753 mm Hg 57%
19:00 +19°C° 0 mm 2 m/s 753 mm Hg 61%
20:00 +20°C° 0 mm 1 m/s 753 mm Hg 65%
21:00 +19°C° 0 mm 1 m/s 753 mm Hg 67%
22:00 +19°C° 0 mm 1 m/s 752 mm Hg 70%
23:00 +18°C° 0 mm 1 m/s 752 mm Hg 73%

2 Novenbre, Lunedi

Tempo Temperatura Precipitazioni Vento Pressione Umidità
00:00 +18°C° 0 mm 1 m/s 752 mm Hg 75%
01:00 +16°C° 0 mm 1 m/s 752 mm Hg 77%
02:00 +16°C° 0 mm 1 m/s 751 mm Hg 79%
03:00 +16°C° 0 mm 1 m/s 751 mm Hg 79%
04:00 +16°C° 0 mm 1 m/s 751 mm Hg 80%
05:00 +16°C° 0 mm 1 m/s 751 mm Hg 81%
06:00 +18°C° 0 mm 1 m/s 752 mm Hg 76%
07:00 +19°C° 0 mm 1 m/s 752 mm Hg 71%
08:00 +20°C° 0 mm 1 m/s 752 mm Hg 66%
09:00 +22°C° 0 mm 1 m/s 752 mm Hg 60%
10:00 +23°C° 0 mm 2 m/s 752 mm Hg 54%
11:00 +25°C° 0 mm 2 m/s 752 mm Hg 47%
12:00 +25°C° 0 mm 2 m/s 752 mm Hg 47%
13:00 +26°C° 0 mm 2 m/s 752 mm Hg 47%
14:00 +26°C° 0 mm 2 m/s 752 mm Hg 47%
15:00 +25°C° 0 mm 3 m/s 752 mm Hg 55%
16:00 +22°C° 0 mm 3 m/s 752 mm Hg 63%
17:00 +21°C° 0 mm 3 m/s 752 mm Hg 70%
18:00 +20°C° 0 mm 3 m/s 752 mm Hg 75%
19:00 +20°C° 0 mm 2 m/s 752 mm Hg 79%
20:00 +19°C° 0 mm 2 m/s 752 mm Hg 83%
21:00 +19°C° 0 mm 2 m/s 752 mm Hg 85%
22:00 +18°C° 0 mm 2 m/s 752 mm Hg 87%
23:00 +18°C° 0 mm 2 m/s 752 mm Hg 90%

3 Novenbre, Martedi

Tempo Temperatura Precipitazioni Vento Pressione Umidità
00:00 +18°C° 0 mm 2 m/s 752 mm Hg 90%
01:00 +18°C° 0 mm 3 m/s 752 mm Hg 90%
02:00 +18°C° 0 mm 3 m/s 752 mm Hg 90%
03:00 +17°C° 0.3 mm 4 m/s 752 mm Hg 84%
04:00 +15°C° 0.3 mm 4 m/s 752 mm Hg 79%
05:00 +14°C° 0.3 mm 5 m/s 752 mm Hg 74%
06:00 +14°C° 0.1 mm 5 m/s 753 mm Hg 68%
07:00 +14°C° 0.1 mm 5 m/s 753 mm Hg 61%
08:00 +13°C° 0.1 mm 5 m/s 753 mm Hg 55%
09:00 +15°C° 0 mm 6 m/s 753 mm Hg 52%
10:00 +16°C° 0 mm 6 m/s 753 mm Hg 48%
11:00 +19°C° 0 mm 6 m/s 753 mm Hg 45%
12:00 +19°C° 0 mm 6 m/s 753 mm Hg 45%
13:00 +19°C° 0 mm 6 m/s 753 mm Hg 45%
14:00 +19°C° 0 mm 6 m/s 752 mm Hg 45%
15:00 +17°C° 0 mm 5 m/s 752 mm Hg 49%
16:00 +16°C° 0 mm 5 m/s 752 mm Hg 53%
17:00 +15°C° 0 mm 5 m/s 752 mm Hg 57%
18:00 +14°C° 0 mm 5 m/s 752 mm Hg 60%
19:00 +13°C° 0 mm 5 m/s 752 mm Hg 64%
20:00 +12°C° 0 mm 5 m/s 752 mm Hg 67%
21:00 +11°C° 0 mm 4 m/s 752 mm Hg 68%
22:00 +11°C° 0 mm 4 m/s 752 mm Hg 69%
23:00 +10°C° 0 mm 3 m/s 751 mm Hg 70%

4 Novenbre, Mercoledi

Tempo Temperatura Precipitazioni Vento Pressione Umidità
00:00 +10°C° 0 mm 3 m/s 751 mm Hg 71%
01:00 +9°C° 0 mm 3 m/s 751 mm Hg 72%
02:00 +9°C° 0 mm 3 m/s 750 mm Hg 74%
03:00 +9°C° 0 mm 3 m/s 750 mm Hg 74%
04:00 +9°C° 0 mm 3 m/s 750 mm Hg 74%
05:00 +9°C° 0 mm 3 m/s 749 mm Hg 75%
06:00 +10°C° 0 mm 3 m/s 749 mm Hg 71%
07:00 +12°C° 0 mm 4 m/s 749 mm Hg 67%
08:00 +13°C° 0 mm 4 m/s 749 mm Hg 62%
09:00 +15°C° 0 mm 4 m/s 749 mm Hg 58%
10:00 +16°C° 0 mm 5 m/s 749 mm Hg 53%
11:00 +19°C° 0 mm 5 m/s 748 mm Hg 48%
12:00 +19°C° 0 mm 4 m/s 748 mm Hg 49%
13:00 +19°C° 0 mm 4 m/s 747 mm Hg 50%
14:00 +19°C° 0 mm 4 m/s 746 mm Hg 51%
15:00 +17°C° 0 mm 4 m/s 746 mm Hg 56%
16:00 +15°C° 0 mm 4 m/s 745 mm Hg 60%
17:00 +14°C° 0 mm 4 m/s 745 mm Hg 65%
18:00 +13°C° 0 mm 4 m/s 745 mm Hg 67%
19:00 +12°C° 0 mm 4 m/s 744 mm Hg 69%
20:00 +11°C° 0 mm 3 m/s 744 mm Hg 71%
21:00 +11°C° 0 mm 3 m/s 743 mm Hg 74%
22:00 +10°C° 0 mm 2 m/s 742 mm Hg 78%
23:00 +10°C° 0 mm 2 m/s 742 mm Hg 82%
Mostrare altro

Abbiamo bisogno del tuo consenso

Meteoprog e i nostri fornitori di servizi possono memorizzare e accedere a dati personali come cookie, identificatori di dispositivi o altre tecnologie simili sul tuo dispositivo e possono elaborare tali dati per personalizzare i contenuti e gli annunci, nonché fornire funzionalità dei social media e analizzarne il traffico.

  • Archiviare e/o accedere alle informazioni sul tuo dispositivo

    Cookie, identificatori di dispositivi o altre informazioni possono essere memorizzati o resi accessibili sul tuo dispositivo per le finalità sopra indicate.

  • Annunci e contenuti personalizzati, misurazione di annunci e contenuti, approfondimenti sul pubblico e sviluppo di prodotti

    Gli annunci e i contenuti possono essere personalizzati in base a un profilo. È possibile aggiungere più dati per personalizzare meglio annunci e contenuti. È possibile misurare il rendimento degli annunci e dei contenuti. È possibile ricavare informazioni sul pubblico che ha visto gli annunci e i contenuti. Tali dati possono essere utilizzati per sviluppare o migliorare l'esperienza, i sistemi e il software dell'utente.

Cliccando su “Accetto”, acconsenti all'uso di cookie, identificatori di dispositivo, web beacon o altre tecnologie simili. Puoi modificare le impostazioni nel browser del tuo dispositivo.

Per determinati scopi, è possibile fare affidamento su interessi legali, piuttosto che sul consenso. Puoi approfondire questo argomento consultando la nostra Informativa sulla privacy e sui cookie.